It's Wednesday,
June 26th, 2019
User not logged in
[Run Race Header Image][Run Race logo]
  
Race webcasting is attempted by race directors and their support staff. Please remember that conditions under which they're working may make it difficult to post timely webcast updates... your interest and patience is appreciated!
Race Information
Race Name:2nd Annual Indiana Trail 100
Location:Albion
State:Indiana, United States
 button: button: Webcast Autoplay
Event Information
Name of Event:100 Mile Trail
Distance:100.00
Measurement:Miles
Date:Saturday April 26th, 2014
button: Assign Numbers  
Checkpoint:SchOut3
Distance:37.64 Miles
Gun Start Time:Saturday April 26th, 2014 5:59:34.15 am
Calculate Chip Start Time:< not set >
Y or N... Calculate splits based upon participant chip start time?
Allow Early Chip Start Time:< not set >
Y or N... Allow participants a chip start time prior to gun start?
Pos Race
Number
NameAgeSexTimePace 
1141Shan Riggs35M5:46:50.49:12.9Sat Apr 26th, 2014 11:46:24 am
2166Jim Trout44M5:57:18.39:29.6
314John Bertram51M6:04:21.69:40.8Sat Apr 26th, 2014 12:03:55 pm
451Dan Fabish18M6:07:00.49:45.0Sat Apr 26th, 2014 12:06:34 pm
5182Craig Wheeler52M6:09:11.09:48.5Sat Apr 26th, 2014 12:08:45 pm
641Paul Dott31M6:12:54.99:54.4Sat Apr 26th, 2014 12:12:29 pm
734Vincent Corona30M6:12:56.29:54.5Sat Apr 26th, 2014 12:12:30 pm
8149Todd Siebert32M6:15:59.79:59.4Sat Apr 26th, 2014 12:15:33 pm
9148Travis Shields37M6:17:45.210:02.2Sat Apr 26th, 2014 12:17:19 pm
10151Jen Skelly34F6:23:20.510:11.1Sat Apr 26th, 2014 12:22:54 pm
11158Paul Stofko38M6:23:22.110:11.1Sat Apr 26th, 2014 12:22:56 pm
1226Jessica Campbell21F6:23:27.110:11.2Sat Apr 26th, 2014 12:23:01 pm
1379David E. Jackson36M6:24:25.510:12.8Sat Apr 26th, 2014 12:23:59 pm
1428Tony Cesario50M6:31:35.610:24.2Sat Apr 26th, 2014 12:31:09 pm
1545Nicholas Eiben19M6:42:52.910:42.2Sat Apr 26th, 2014 12:42:27 pm
16140Kirk Ridenour54M6:43:44.910:43.6Sat Apr 26th, 2014 12:43:19 pm
17161Mika Thewes22F6:45:15.510:46.0Sat Apr 26th, 2014 12:44:49 pm
18129Ben Pearce19M6:49:18.110:52.4Sat Apr 26th, 2014 12:48:52 pm
19127Daniel Paige34M6:49:26.710:52.7Sat Apr 26th, 2014 12:49:00 pm
20104David Mentjes44M6:53:31.210:59.2Sat Apr 26th, 2014 12:53:05 pm
21177Eric Fritz46M6:53:51.710:59.7Sat Apr 26th, 2014 12:53:25 pm
22162Mark Thill38M6:54:52.911:01.3Sat Apr 26th, 2014 12:54:27 pm
2387Ryan "Stormy" Knight37M6:57:38.011:05.7Sat Apr 26th, 2014 12:57:12 pm
24112Frank Morris32M6:58:09.711:06.6Sat Apr 26th, 2014 12:57:43 pm
25119David Nichols53M7:00:09.711:09.8Sat Apr 26th, 2014 12:59:43 pm
26145James Schroeder37M7:00:39.311:10.5Sat Apr 26th, 2014 1:00:13 pm
27184Kinga Kokoc35F7:05:22.711:18.1Sat Apr 26th, 2014 1:04:56 pm
2836John Cushma40M7:08:33.211:23.1Sat Apr 26th, 2014 1:08:07 pm
2920Erin Brady42F7:09:19.111:24.4Sat Apr 26th, 2014 1:08:53 pm
3050Linda Keuneke50F7:10:07.811:25.6Sat Apr 26th, 2014 1:09:41 pm
31126Julie Pagel29F7:10:34.711:26.4Sat Apr 26th, 2014 1:10:08 pm
3268Shawn Hawk49M7:10:56.411:26.9Sat Apr 26th, 2014 1:10:30 pm
33114Larry Mullinnix49M7:11:24.111:27.7Sat Apr 26th, 2014 1:10:58 pm
3454Tom Fifer51M7:11:28.611:27.8Sat Apr 26th, 2014 1:11:02 pm
35108Joshua Mock32M7:11:28.811:27.8Sat Apr 26th, 2014 1:11:02 pm
3662Martin Guthrie47M7:12:39.011:29.7Sat Apr 26th, 2014 1:12:13 pm
3798Kenneth Lynn42M7:14:56.311:33.3Sat Apr 26th, 2014 1:14:30 pm
38183Anastasia Andrychowski34F7:15:36.411:34.4Sat Apr 26th, 2014 1:15:10 pm
3963Jerret Halter32M7:16:23.311:35.6Sat Apr 26th, 2014 1:15:57 pm
405LEE ANDERSON56M7:17:05.211:36.7Sat Apr 26th, 2014 1:16:39 pm
41113SIAMAK MOSTOUFI39M7:17:27.211:37.3Sat Apr 26th, 2014 1:17:01 pm
4224todd brown45M7:17:35.511:37.5Sat Apr 26th, 2014 1:17:09 pm
4357Mark Gavorski48M7:18:42.411:39.3Sat Apr 26th, 2014 1:18:16 pm
4446Mike Else45M7:18:59.411:39.8Sat Apr 26th, 2014 1:18:33 pm
4517Andrew Borst43M7:20:06.711:41.6Sat Apr 26th, 2014 1:19:40 pm
4672Rich Henderson58M7:24:33.211:48.6Sat Apr 26th, 2014 1:24:07 pm
47115Carolynn Nauta32F7:24:51.811:49.1Sat Apr 26th, 2014 1:24:25 pm
48125Jeff Oliver40M7:25:24.311:50.0Sat Apr 26th, 2014 1:24:58 pm
49180Michael Linkogel43M7:26:34.711:51.9Sat Apr 26th, 2014 1:26:08 pm
5021Bob Brashear55M7:26:57.311:52.5Sat Apr 26th, 2014 1:26:31 pm
518Brian Barger53M7:31:11.711:59.2Sat Apr 26th, 2014 1:30:45 pm
5242Michael Dowdell38M7:31:13.511:59.3Sat Apr 26th, 2014 1:30:47 pm
53107Kirk Misaka55M7:32:17.212:01.0Sat Apr 26th, 2014 1:31:51 pm
54134dave potter49M7:33:26.112:02.8Sat Apr 26th, 2014 1:33:00 pm
55133Richard Plezia55M7:34:37.112:04.7Sat Apr 26th, 2014 1:34:11 pm
5644Tanya Eggert44F7:34:40.312:04.8Sat Apr 26th, 2014 1:34:14 pm
57103Chris McMahon54M7:34:48.312:05.0Sat Apr 26th, 2014 1:34:22 pm
58154Mike Smith56M7:35:15.412:05.7Sat Apr 26th, 2014 1:34:49 pm
5966Dick Canterbury66M7:37:18.012:09.0Sat Apr 26th, 2014 1:36:52 pm
60123Reggie O'HARA45M7:37:51.912:09.9Sat Apr 26th, 2014 1:37:26 pm
61105Craig Meseko29M7:41:50.512:16.2Sat Apr 26th, 2014 1:41:24 pm
6261Graham Grove36M7:43:32.012:18.9Sat Apr 26th, 2014 1:43:06 pm
6376Scott Hudson46M7:46:56.512:24.3Sat Apr 26th, 2014 1:46:30 pm
64117Peter Nelson50M7:47:52.512:25.8Sat Apr 26th, 2014 1:47:26 pm
65116David Nelson26M7:47:53.912:25.9Sat Apr 26th, 2014 1:47:28 pm
6656Helen Garen49F7:51:45.112:32.0Sat Apr 26th, 2014 1:51:19 pm
67178Joe Cuthbertson39M7:52:30.012:33.2Sat Apr 26th, 2014 1:52:04 pm
6891Bill Kulwicki55M7:53:38.512:35.0Sat Apr 26th, 2014 1:53:12 pm
69165Judd Trayling40M7:54:07.512:35.8Sat Apr 26th, 2014 1:53:41 pm
70111James Cooper44M7:55:21.212:37.7Sat Apr 26th, 2014 1:54:55 pm
71156Phil Stapert47M7:55:55.012:38.6Sat Apr 26th, 2014 1:55:29 pm
72143Matthew Santner37M7:55:55.412:38.6Sat Apr 26th, 2014 1:55:29 pm
7340Noe j Dominguez45M7:56:16.912:39.2Sat Apr 26th, 2014 1:55:51 pm
74159Steve Sunbury44M7:56:19.812:39.3Sat Apr 26th, 2014 1:55:53 pm
7583Chris Junken35M8:02:33.412:49.2Sat Apr 26th, 2014 2:02:07 pm
76169Chris Walker34M8:02:33.712:49.2Sat Apr 26th, 2014 2:02:07 pm
7739Nathan DeWall34M8:03:03.212:50.0Sat Apr 26th, 2014 2:02:37 pm
7825Aaron Butler32M8:04:05.712:51.7Sat Apr 26th, 2014 2:03:39 pm
79124Ethan Olds24M8:04:40.712:52.6Sat Apr 26th, 2014 2:04:14 pm
80170ben wallace57M8:07:59.812:57.9Sat Apr 26th, 2014 2:07:33 pm
8155Zach Franklin31M8:09:07.012:59.7Sat Apr 26th, 2014 2:08:41 pm
82135Rob Putz48M8:10:06.813:01.3Sat Apr 26th, 2014 2:09:41 pm
8393John Leighton53M8:10:54.113:02.5Sat Apr 26th, 2014 2:10:28 pm
84147mark sheeran54M8:12:02.813:04.3Sat Apr 26th, 2014 2:11:36 pm
85163Derek Tinnin46M8:13:29.413:06.6Sat Apr 26th, 2014 2:13:03 pm
8682Juan Juarez42M8:13:48.913:07.2Sat Apr 26th, 2014 2:13:23 pm
8752Jamie Farley35M8:14:32.513:08.3Sat Apr 26th, 2014 2:14:06 pm
886Ric Angara43M8:16:24.013:11.3Sat Apr 26th, 2014 2:15:58 pm
89181Rene Samano28M8:18:15.713:14.3Sat Apr 26th, 2014 2:17:49 pm
9064Cindylee Torres54F8:24:22.513:24.0Sat Apr 26th, 2014 2:23:56 pm
91174Randall Yost55M8:25:38.213:26.0Sat Apr 26th, 2014 2:25:12 pm
922Kurt Adams35M8:27:52.613:29.6Sat Apr 26th, 2014 2:27:26 pm
93146Rob Schultz47M8:31:18.613:35.1Sat Apr 26th, 2014 2:30:52 pm
94136Rashad Qadir50M8:31:18.713:35.1Sat Apr 26th, 2014 2:30:52 pm
95130Alfredo ''Moose'' Pedro45M8:31:51.013:35.9Sat Apr 26th, 2014 2:31:25 pm
96171Marci Wease37F8:33:32.113:38.6Sat Apr 26th, 2014 2:33:06 pm
974Jonathon Amlung44M8:35:15.313:41.3Sat Apr 26th, 2014 2:34:49 pm
98179Elizabeth Hermans31F8:36:38.813:43.6Sat Apr 26th, 2014 2:36:12 pm
9969Kent Heck52M8:38:21.513:46.3Sat Apr 26th, 2014 2:37:55 pm
10078Lauren Idzik43F8:38:59.113:47.3Sat Apr 26th, 2014 2:38:33 pm
10116toni bohannon46F8:39:24.413:48.0Sat Apr 26th, 2014 2:38:58 pm
10274Alex "ACE" Honigford33M8:42:11.213:52.4Sat Apr 26th, 2014 2:41:45 pm
10373Jeff Hogan45M8:43:51.113:55.0Sat Apr 26th, 2014 2:43:25 pm
10431Mark Coates33M8:43:55.813:55.2Sat Apr 26th, 2014 2:43:29 pm
10558Gary Gentry48M8:45:23.613:57.5Sat Apr 26th, 2014 2:44:57 pm
10699Daniel Maddox38M8:45:34.713:57.8Sat Apr 26th, 2014 2:45:08 pm
107142Steve Riportella48M8:49:19.514:03.8Sat Apr 26th, 2014 2:48:53 pm
10848Karen Erba44F8:50:23.914:05.5Sat Apr 26th, 2014 2:49:58 pm
109122Terry Null55M8:53:01.914:09.7Sat Apr 26th, 2014 2:52:36 pm
1103Justin Alford40M8:54:09.214:11.5Sat Apr 26th, 2014 2:53:43 pm
11186John Klarquist49M8:55:36.414:13.8Sat Apr 26th, 2014 2:55:10 pm
112120Caleb Nolen28M8:56:20.214:14.9Sat Apr 26th, 2014 2:55:54 pm
113132Catherine Pinkston29F8:57:02.114:16.1Sat Apr 26th, 2014 2:56:36 pm
114137Jamie Quarandillo40F8:57:02.714:16.1Sat Apr 26th, 2014 2:56:36 pm
11533Aaron Conner41M8:57:16.214:16.4Sat Apr 26th, 2014 2:56:50 pm
116121Mark Norfleet57M8:59:21.214:19.8Sat Apr 26th, 2014 2:58:55 pm
11718James Bowers36M9:04:47.114:28.4
118176Stan Zygmunt51M9:04:47.114:28.4Sat Apr 26th, 2014 3:04:21 pm
11953Ramon Ferrer Jr34M9:04:48.714:28.5Sat Apr 26th, 2014 3:04:22 pm
120150Robert Siscoe59M9:06:55.514:31.8Sat Apr 26th, 2014 3:06:29 pm
12147David Englund46M9:08:03.614:33.6Sat Apr 26th, 2014 3:07:37 pm
12235Joe Cortez49M9:10:43.514:37.9Sat Apr 26th, 2014 3:10:17 pm
12390Steven Kuhl62M9:18:10.314:49.8Sat Apr 26th, 2014 3:17:44 pm
12438James Davidson51M9:19:51.014:52.4Sat Apr 26th, 2014 3:19:25 pm
12512Richard Barton61M9:19:57.214:52.6Sat Apr 26th, 2014 3:19:31 pm
12681MELISSA JOYCE-HASSAN49F9:20:40.914:53.8Sat Apr 26th, 2014 3:20:15 pm
12711Mark Barton57M9:21:01.114:54.3Sat Apr 26th, 2014 3:20:35 pm
1289Crystal Barton38F9:21:04.714:54.4Sat Apr 26th, 2014 3:20:38 pm
129101Sondra Marker50F9:21:20.314:54.8Sat Apr 26th, 2014 3:20:54 pm
13010Kathy Barton57F9:21:20.614:54.8Sat Apr 26th, 2014 3:20:54 pm
13113Richard Benjamin58M9:21:39.314:55.3Sat Apr 26th, 2014 3:21:13 pm
13270Mike Heider54M9:25:33.815:01.5Sat Apr 26th, 2014 3:25:07 pm
133168Jesse Vasquez38M9:25:49.715:02.0Sat Apr 26th, 2014 3:25:23 pm
134131Scott Peterson38M9:29:26.015:07.7Sat Apr 26th, 2014 3:29:00 pm
13523Kimmie Brown34F9:32:48.015:13.1Sat Apr 26th, 2014 3:32:22 pm
136172Kenneth Westerman55M9:37:11.015:20.1Sat Apr 26th, 2014 3:36:45 pm
13715sandra bocchicchio41F9:37:25.115:20.4Sat Apr 26th, 2014 3:36:59 pm
138102Rick McClain52M9:37:54.915:21.2Sat Apr 26th, 2014 3:37:29 pm
139173Michael Wolff41M9:38:53.915:22.8Sat Apr 26th, 2014 3:38:28 pm
14097Suann Lundsberg38F9:42:42.615:28.9Sat Apr 26th, 2014 3:42:16 pm
1417REGINA ARVIN41F9:47:10.615:36.0Sat Apr 26th, 2014 3:46:44 pm
14227Dennis Cantrell53M9:50:30.315:41.3Sat Apr 26th, 2014 3:50:04 pm
14384Larry Kelley47M9:59:11.715:55.1Sat Apr 26th, 2014 3:58:45 pm
144157Fred Steuber46M10:09:25.816:11.5Sat Apr 26th, 2014 4:08:59 pm
145167Ali Turfe50M10:16:52.116:23.3Sat Apr 26th, 2014 4:16:26 pm
14675Bruce Houston57M10:19:55.016:28.2Sat Apr 26th, 2014 4:19:29 pm
147138Frank Rampton57M10:22:59.216:33.1Sat Apr 26th, 2014 4:22:33 pm

Event Information
Name of Event:50 Mile Trail
Distance:50.00
Measurement:Miles
Date:Saturday April 26th, 2014
button: Assign Numbers 
2004-2019 : All rights reserved
Terms and Conditions